Regional Weather Roundup
Issued by NWS

Home | Current Version | Previous Version | Text Only | Print | Product List | Glossary Off
Versions: 1 2 3 4 5 6 7 8 9 10 11 12 13 14 15 16 17 18 19 20 21 22 23 24 25 26 27 28 29 30 31 32 33 34 35 36 37 38 39 40 41 42 43 44 45 46 47 48 49 50

338
ASUS43 KOAX 230702
RWRNE

WEATHER ROUNDUP FOR NEBRASKA
NATIONAL WEATHER SERVICE OMAHA NE
200 AM CDT SUN APR 23 2017

NOTES: SATELLITE DATA IS BEING USED TO AUGMENT CLOUD COVER ABOVE
       12000 FEET.
       "FAIR" INDICATES FEW OR NO CLOUDS BELOW 12,000 FEET WITH NO
       SIGNIFICANT WEATHER AND/OR OBSTRUCTIONS TO VISIBILITY.

  * THESE STATIONS DO NOT REPORT WEATHER SUCH AS RAIN...SNOW OR FOG.

NEZ001>004-019>022-054>056-230800-
NEBRASKA PANHANDLE

CITY           SKY/WX    TMP DP  RH WIND       PRES   REMARKS
SCOTTSBLUFF    CLEAR     41  28  60 E8        30.10F
ALLIANCE       CLEAR     33  27  78 S10       30.10F WCI  25
CHADRON        CLEAR     50  31  48 S16       30.06F
KIMBALL        CLEAR     38  33  81 S10       30.13F WCI  31
SIDNEY         CLOUDY    38  32  79 S12       30.16F WCI  30
$$

NEZ057>060-069>072-079>082-230800-
SOUTHWEST NEBRASKA

CITY           SKY/WX    TMP DP  RH WIND       PRES   REMARKS
NORTH PLATTE   CLEAR     44  29  55 S8        30.17F
IMPERIAL       CLEAR     42  32  67 S10       30.19F
LEXINGTON      CLEAR     37  26  64 CALM      30.20F
MCCOOK         CLEAR     38  30  73 SW7       30.20F WCI  33
OGALLALA       CLEAR     42  31  64 S9        30.17S
$$

NEZ005>010-023>029-035>040-094-230800-
NORTH CENTRAL NEBRASKA

CITY           SKY/WX    TMP DP  RH WIND       PRES   REMARKS
VALENTINE      CLEAR     47  26  44 SW12      30.12S
AINSWORTH      CLEAR     44  33  66 S10       30.14S
BROKEN BOW     CLEAR     32  25  75 CALM      30.17F
O`NEILL        CLEAR     44  33  64 S6        30.16S
ORD            CLEAR     40  30  67 S6        30.16F
THEDFORD       CLEAR     43  28  56 S7        30.16S
$$

NEZ041-046>049-061>064-073>077-083>087-230800-
SOUTH CENTRAL NEBRASKA

CITY           SKY/WX    TMP DP  RH WIND       PRES   REMARKS
GRAND ISLAND   CLEAR     44  32  62 S9        30.21S
AURORA         CLEAR     38  26  61 S5        30.20S WCI  35
HASTINGS       CLEAR     39  29  67 SW5       30.22F
HEBRON         CLEAR     37  32  82 CALM      30.22S
HOLDREGE       CLEAR     45  28  50 S6        30.21F
KEARNEY *      CLEAR     43  28  56 S6        30.21F
YORK           CLEAR     43  30  61 S5        30.20F
$$

NEZ011>018-030>034-042>045-230800-
NORTHEAST NEBRASKA

CITY           SKY/WX    TMP DP  RH WIND       PRES   REMARKS
NORFOLK        CLEAR     46  31  55 S10       30.17F
ALBION         CLEAR     43  32  65 SE3       30.18F
BLAIR          CLEAR     49  33  52 CALM      30.18F
FREMONT        CLEAR     44  39  83 CALM      30.19F
TEKAMAH        CLEAR     44  39  82 S5        30.17F
WAYNE          CLEAR     39  33  78 S3        30.17F
$$

NEZ050>053-065>068-078-088>093-230800-
SOUTHEAST NEBRASKA

CITY           SKY/WX    TMP DP  RH WIND       PRES   REMARKS
LINCOLN        CLEAR     40  34  79 CALM      30.21F
OMAHA EPPLEY   CLEAR     46  36  68 CALM      30.19S
BEATRICE       CLEAR     40  35  81 CALM      30.20F
FALLS CITY     CLEAR     40  34  79 NW5       30.20R
NEBRASKA CITY  CLEAR     44  29  55 W5        30.20S
PLATTSMOUTH    CLEAR     49  26  40 W3        30.19F
$$

NEZ044-045-051>053-067-230800-
OMAHA AREA

CITY           SKY/WX    TMP DP  RH WIND       PRES   REMARKS
OMAHA EPPLEY   CLEAR     46  36  68 CALM      30.19S
BLAIR          CLEAR     49  33  52 CALM      30.18F
FREMONT        CLEAR     44  39  83 CALM      30.19F
MILLARD        CLEAR     44  41  87 CALM      30.19F
OFFUTT AFB     CLEAR     41  35  78 CALM      30.18F
PLATTSMOUTH    CLEAR     49  26  40 W3        30.19F
WAHOO          FAIR      42  35  76 CALM      30.19F
$$




USA.gov is the U.S. government's official web portal to all federal, state and local government web resources and services.